Marianna, FL

9:42 PM CDT on July 25, 2017 (GMT -0500)
Marianna Municipal

Weather History for KMAI - October, 2013

Change the Weather History Date:

Thursday, October 3, 2013

  Actual Average Record
Temperature  
Mean Temperature 76 °F 73 °F  
Max Temperature 87 °F 84 °F 90 °F (2004)
Min Temperature 65 °F 62 °F 44 °F (2011)
Degree Days  
Heating Degree Days 0    
Month to date heating degree days 0  
Since 1 July heating degree days 0  
Cooling Degree Days 11    
Month to date cooling degree days 33  
Year to date cooling degree days 2325  
Growing Degree Days 25 (Base 50)    
Moisture  
Dew Point 66 °F    
Average Humidity 71    
Maximum Humidity 93    
Minimum Humidity 48    
Precipitation  
Precipitation 0.00 in 0.08 in 0.60 in (1998)
Month to date precipitation 0.00 0.25  
Year to date precipitation 53.05 42.38  
Sea Level Pressure  
Sea Level Pressure 30.06 in    
Wind  
Wind Speed 3 mph (ESE)    
Max Wind Speed 10 mph    
Max Gust Speed 14 mph    
Visibility 10 miles    
Events      
T = Trace of Precipitation, MM = Missing Value Source: NWS Daily Summary

Daily Weather History Graph

Daily Weather History Graph

Search for Another Location

Airport or City:

Trip Planner

Search our weather history database for the weather conditions in past years. The results will help you decide how hot, cold, wet, or windy it might be!

Date:

Astronomy

Oct. 03, 2013 Rise Set
Actual Time 6:35 AM CDT 6:23 PM CDT
Civil Twilight 6:11 AM CDT 6:47 PM CDT
Nautical Twilight 5:43 AM CDT 7:15 PM CDT
Astronomical Twilight 5:15 AM CDT 7:43 PM CDT
Moon 5:12 AM CDT (10/3) 5:29 PM CDT (10/3)
Length of Visible Light 12h 35m
Length of Day
11h 47m
Waning Crescent, 2% of the Moon is Illuminated
Oct 3
Waning Crescent
Oct 4
New
Oct 11
First Quarter
Oct 18
Full
Oct 26
Last Quarter

Hourly Weather History & Observations

Time (CDT) Temp. Heat Index Dew Point Humidity Pressure Visibility Wind Dir Wind Speed Gust Speed Precip Events Conditions
12:53 AM 70.0 °F - 64.9 °F 84% 30.07 in 10.0 mi East 3.5 mph - N/A   Clear
1:53 AM 70.0 °F - 64.9 °F 84% 30.06 in 10.0 mi East 3.5 mph - N/A   Clear
2:53 AM 69.1 °F - 64.0 °F 84% 30.05 in 10.0 mi ESE 4.6 mph - N/A   Clear
3:53 AM 66.0 °F - 64.0 °F 93% 30.03 in 10.0 mi ENE 3.5 mph - N/A   Clear
4:53 AM 66.0 °F - 64.0 °F 93% 30.04 in 10.0 mi Calm Calm - N/A   Clear
5:53 AM 66.0 °F - 64.0 °F 93% 30.04 in 10.0 mi Calm Calm - N/A   Clear
6:53 AM 64.9 °F - 63.0 °F 93% 30.06 in 10.0 mi NE 4.6 mph - N/A   Clear
7:53 AM 68.0 °F - 64.9 °F 90% 30.07 in 10.0 mi ENE 5.8 mph - N/A   Clear
8:53 AM 73.9 °F - 66.9 °F 79% 30.09 in 10.0 mi East 6.9 mph - N/A   Clear
9:53 AM 77.0 °F - 66.9 °F 71% 30.10 in 10.0 mi SE 5.8 mph - N/A   Clear
10:53 AM 80.1 °F 81.9 °F 64.9 °F 60% 30.10 in 10.0 mi SE 6.9 mph - N/A   Clear
11:53 AM 82.9 °F 84.6 °F 64.9 °F 54% 30.09 in 10.0 mi Variable 6.9 mph - N/A   Clear
12:53 PM 84.0 °F 85.8 °F 64.9 °F 53% 30.06 in 10.0 mi East 4.6 mph - N/A   Clear
1:53 PM 84.0 °F 85.4 °F 64.0 °F 51% 30.05 in 10.0 mi East 4.6 mph - N/A   Clear
2:53 PM 84.9 °F 86.1 °F 64.0 °F 49% 30.03 in 10.0 mi Calm Calm - N/A   Clear
3:53 PM 86.0 °F 87.6 °F 64.9 °F 49% 30.02 in 10.0 mi ESE 4.6 mph - N/A   Clear
4:53 PM 82.9 °F 84.4 °F 64.0 °F 53% 30.01 in 10.0 mi ESE 4.6 mph - N/A   Clear
5:53 PM 82.0 °F 84.1 °F 66.0 °F 58% 30.02 in 10.0 mi Calm Calm - N/A   Clear
6:53 PM 78.1 °F - 69.1 °F 74% 30.04 in 10.0 mi Calm Calm - N/A   Clear
7:53 PM 77.0 °F - 69.1 °F 76% 30.06 in 10.0 mi SSE 4.6 mph - N/A   Partly Cloudy
8:53 PM 75.9 °F - 69.1 °F 79% 30.07 in 10.0 mi SSE 4.6 mph - N/A   Clear
9:53 PM 75.0 °F - 69.1 °F 82% 30.07 in 10.0 mi Calm Calm - N/A   Clear
11:53 PM 72.0 °F - 68.0 °F 87% 30.05 in 10.0 mi Calm Calm - N/A   Clear